Location: Whitehorse
(60.7170°N, 135.0500°W)
Time: 15:10:40
(UTC-08:00)

SL-16 R/B - Visible Passes

Search period start: 20 November 2017 00:00
Search period end: 30 November 2017 00:00
Orbit: 840 x 850 km, 71.0° (Epoch: 20 November)

Date Brightness Start Highest point End Pass type
(mag) Time Alt. Az. Time Alt. Az. Time Alt. Az.
20 Nov 4.0 05:07:03 10° SSE 05:11:49 28° ESE 05:16:36 10° NE visible
20 Nov 2.2 06:49:42 10° SW 06:55:25 88° NW 07:01:10 10° NE visible
21 Nov 4.0 04:53:33 12° SSE 04:57:46 28° ESE 05:02:31 10° NE visible
21 Nov 2.2 06:35:38 10° SW 06:41:20 90° NW 06:47:05 10° NE visible
21 Nov 2.8 08:20:46 10° W 08:26:06 39° NNW 08:31:28 10° NE visible
22 Nov 4.0 04:40:59 19° SSE 04:43:43 27° ESE 04:48:25 10° NE visible
22 Nov 2.2 06:22:56 18° SW 06:27:16 89° SE 06:33:01 10° NE visible
22 Nov 2.7 08:06:39 10° W 08:12:01 40° NNW 08:17:23 10° NE visible
23 Nov 4.0 04:28:10 24° SE 04:29:40 27° ESE 04:34:20 10° NE visible
23 Nov 2.2 06:10:05 28° SW 06:13:12 87° SE 06:18:56 10° NE visible
23 Nov 2.7 07:52:34 10° W 07:57:55 40° NNW 08:03:18 10° NE visible
24 Nov 3.9 04:15:08 26° ESE 04:15:38 26° ESE 04:20:14 10° NE visible
24 Nov 2.1 05:57:03 42° SW 05:59:08 86° SE 06:04:53 10° NE visible
24 Nov 2.7 07:38:59 13° W 07:43:50 41° NNW 07:49:14 10° NE visible
25 Nov 4.0 04:01:58 25° E 04:01:58 25° E 04:06:09 10° NE visible
25 Nov 2.1 05:43:53 58° SSW 05:45:03 85° SE 05:50:48 10° NE visible
25 Nov 2.7 07:25:48 17° W 07:29:45 41° NNW 07:35:09 10° NE visible
26 Nov 4.2 03:48:42 23° E 03:48:42 23° E 03:52:03 10° NE visible
26 Nov 2.1 05:30:36 77° S 05:30:59 83° SE 05:36:44 10° NE visible
26 Nov 2.7 07:12:31 23° W 07:15:39 41° NNW 07:21:05 10° NE visible
27 Nov 4.4 03:35:21 21° ENE 03:35:21 21° ENE 03:37:58 10° NE visible
27 Nov 2.2 05:17:15 78° E 05:17:15 78° E 05:22:39 10° NE visible
27 Nov 2.7 06:59:09 28° WNW 07:01:34 42° NNW 07:07:00 10° NE visible
28 Nov 4.6 03:21:55 18° ENE 03:21:55 18° ENE 03:23:52 10° NE visible
28 Nov 2.5 05:03:49 62° ENE 05:03:49 62° ENE 05:08:35 10° NE visible
28 Nov 2.7 06:45:42 33° WNW 06:47:28 42° NNW 06:52:55 10° NE visible
28 Nov 3.2 08:27:58 10° WNW 08:32:57 30° N 08:37:57 10° ENE visible
29 Nov 4.8 03:08:27 15° ENE 03:08:27 15° ENE 03:09:47 10° NE visible
29 Nov 2.9 04:50:20 50° NE 04:50:20 50° NE 04:54:31 10° NE visible
29 Nov 2.6 06:32:14 38° WNW 06:33:24 43° NNW 06:38:51 10° NE visible
29 Nov 3.2 08:14:07 11° WNW 08:18:51 30° N 08:23:51 10° ENE visible
